Time,TemperatureF,DewpointF,PressureIn,WindDirection,WindDirectionDegrees,WindSpeedMPH,WindSpeedGustMPH,Humidity,HourlyPrecipIn,Conditions,Clouds,dailyrainin,SoftwareType,DateUTC
2013-03-14 00:02:00,30.0,22.0,30.19,SSE,155,0.0,3.0,72,0.00,,,0.00,,2013-03-14 05:02:00,
2013-03-14 00:12:00,30.0,22.0,30.19,SSE,155,0.0,3.0,72,0.00,,,0.00,,2013-03-14 05:12:00,
2013-03-14 00:22:00,30.0,22.0,30.18,SSE,155,0.0,1.0,72,0.00,,,0.00,,2013-03-14 05:22:00,
2013-03-14 00:33:00,30.0,22.0,30.18,SSE,155,0.0,2.0,71,0.00,,,0.00,,2013-03-14 05:33:00,
2013-03-14 00:42:00,30.0,22.0,30.18,SSE,155,0.0,2.0,71,0.00,,,0.00,,2013-03-14 05:42:00,
2013-03-14 00:53:00,30.0,22.0,30.16,SSE,155,0.0,0.0,72,0.00,,,0.00,,2013-03-14 05:53:00,
2013-03-14 01:02:00,30.0,22.0,30.16,SSE,155,0.0,0.0,72,0.00,,,0.00,,2013-03-14 06:02:00,
2013-03-14 01:12:00,30.0,22.0,30.16,SSE,155,0.0,0.0,72,0.00,,,0.00,,2013-03-14 06:12:00,
2013-03-14 01:22:00,30.0,22.0,30.15,SSE,155,0.0,1.0,72,0.00,,,0.00,,2013-03-14 06:22:00,
2013-03-14 01:32:00,30.0,22.0,30.15,SSE,155,0.0,1.0,72,0.00,,,0.00,,2013-03-14 06:32:00,
2013-03-14 01:42:00,30.0,22.0,30.15,SSE,155,0.0,1.0,72,0.00,,,0.00,,2013-03-14 06:42:00,
2013-03-14 01:52:00,30.0,22.0,30.13,SSE,155,0.0,1.0,71,0.00,,,0.00,,2013-03-14 06:52:00,
2013-03-14 02:02:00,30.0,22.0,30.13,SSE,155,0.0,1.0,71,0.00,,,0.00,,2013-03-14 07:02:00,
2013-03-14 02:12:00,30.0,22.0,30.13,SSE,155,0.0,1.0,71,0.00,,,0.00,,2013-03-14 07:12:00,
2013-03-14 02:22:00,31.0,23.0,30.12,SSE,155,0.0,0.0,71,0.00,,,0.00,,2013-03-14 07:22:00,
2013-03-14 02:32:00,31.0,22.0,30.12,SSE,155,0.0,0.0,70,0.00,,,0.00,,2013-03-14 07:32:00,
2013-03-14 02:43:00,31.0,22.0,30.12,SSE,155,0.0,0.0,70,0.00,,,0.00,,2013-03-14 07:43:00,
2013-03-14 02:52:00,33.0,23.0,30.09,South,171,1.0,10.0,65,0.00,,,0.00,,2013-03-14 07:52:00,
2013-03-14 03:02:00,34.0,22.0,30.09,SSE,168,3.0,13.0,61,0.00,,,0.00,,2013-03-14 08:02:00,
2013-03-14 03:12:00,34.0,22.0,30.09,SSE,168,3.0,13.0,61,0.00,,,0.00,,2013-03-14 08:12:00,
2013-03-14 03:22:00,35.0,22.0,30.07,South,171,1.0,10.0,59,0.00,,,0.00,,2013-03-14 08:22:00,
2013-03-14 03:32:00,35.0,22.0,30.07,South,172,0.0,9.0,59,0.00,,,0.00,,2013-03-14 08:32:00,
2013-03-14 03:41:00,35.0,22.0,30.07,South,172,0.0,9.0,59,0.00,,,0.00,,2013-03-14 08:41:00,
2013-03-14 03:52:00,35.0,23.0,30.07,SSE,164,1.0,11.0,60,0.00,,,0.00,,2013-03-14 08:52:00,
2013-03-14 04:01:00,35.0,23.0,30.07,South,177,1.0,11.0,60,0.00,,,0.00,,2013-03-14 09:01:00,
2013-03-14 04:12:00,35.0,23.0,30.07,South,177,1.0,11.0,60,0.00,,,0.00,,2013-03-14 09:12:00,
2013-03-14 04:22:00,35.0,23.0,30.05,South,186,1.0,8.0,60,0.00,,,0.00,,2013-03-14 09:22:00,
2013-03-14 04:32:00,35.0,23.0,30.05,South,173,1.0,8.0,60,0.00,,,0.00,,2013-03-14 09:32:00,
2013-03-14 04:42:00,35.0,23.0,30.05,South,173,1.0,8.0,60,0.00,,,0.00,,2013-03-14 09:42:00,
2013-03-14 04:52:00,35.0,23.0,30.04,South,174,2.0,6.0,61,0.00,,,0.00,,2013-03-14 09:52:00,
2013-03-14 05:02:00,35.0,23.0,30.03,South,178,1.0,6.0,62,0.00,,,0.00,,2013-03-14 10:02:00,
2013-03-14 05:12:00,35.0,23.0,30.03,South,178,1.0,6.0,62,0.00,,,0.00,,2013-03-14 10:12:00,
2013-03-14 05:22:00,35.0,24.0,30.02,South,170,1.0,8.0,64,0.00,,,0.00,,2013-03-14 10:22:00,
2013-03-14 05:32:00,35.0,24.0,30.02,South,169,0.0,4.0,65,0.00,,,0.00,,2013-03-14 10:32:00,
2013-03-14 05:42:00,35.0,24.0,30.02,South,169,0.0,4.0,65,0.00,,,0.00,,2013-03-14 10:42:00,
2013-03-14 05:52:00,35.0,24.0,30.02,South,169,0.0,4.0,65,0.00,,,0.00,,2013-03-14 10:52:00,
2013-03-14 06:02:00,34.0,25.0,30.02,South,169,0.0,0.0,68,0.00,,,0.00,,2013-03-14 11:02:00,
2013-03-14 06:12:00,34.0,25.0,30.02,South,169,0.0,0.0,68,0.00,,,0.00,,2013-03-14 11:12:00,
2013-03-14 06:22:00,33.0,25.0,30.01,South,169,0.0,0.0,71,0.00,,,0.00,,2013-03-14 11:22:00,
2013-03-14 06:33:00,33.0,25.0,30.01,South,169,0.0,4.0,71,0.00,,,0.00,,2013-03-14 11:33:00,
2013-03-14 06:42:00,33.0,25.0,30.01,South,169,0.0,4.0,71,0.00,,,0.00,,2013-03-14 11:42:00,
2013-03-14 06:52:00,33.0,25.0,30.01,South,169,0.0,0.0,72,0.00,,,0.00,,2013-03-14 11:52:00,
2013-03-14 07:02:00,32.0,24.0,30.00,South,169,0.0,0.0,73,0.00,,,0.00,,2013-03-14 12:02:00,
2013-03-14 07:12:00,32.0,24.0,30.00,South,169,0.0,0.0,73,0.00,,,0.00,,2013-03-14 12:12:00,
2013-03-14 07:22:00,32.0,25.0,29.99,South,169,0.0,1.0,74,0.00,,,0.00,,2013-03-14 12:22:00,
2013-03-14 07:33:00,32.0,24.0,30.00,South,169,0.0,0.0,73,0.00,,,0.00,,2013-03-14 12:33:00,
2013-03-14 07:42:00,32.0,24.0,30.00,South,169,0.0,0.0,73,0.00,,,0.00,,2013-03-14 12:42:00,
2013-03-14 07:52:00,32.0,24.0,30.00,South,169,0.0,0.0,73,0.00,,,0.00,,2013-03-14 12:52:00,
2013-03-14 08:02:00,32.0,24.0,30.00,South,169,0.0,0.0,73,0.00,,,0.00,,2013-03-14 13:02:00,
2013-03-14 08:12:00,32.0,24.0,30.00,South,169,0.0,0.0,73,0.00,,,0.00,,2013-03-14 13:12:00,
2013-03-14 08:22:00,32.0,25.0,30.00,South,169,0.0,0.0,75,0.00,,,0.00,,2013-03-14 13:22:00,
2013-03-14 08:32:00,32.0,25.0,30.00,South,169,0.0,0.0,75,0.00,,,0.00,,2013-03-14 13:32:00,
2013-03-14 08:42:00,32.0,25.0,30.00,South,169,0.0,0.0,75,0.00,,,0.00,,2013-03-14 13:42:00,
2013-03-14 08:52:00,32.0,25.0,30.00,South,169,0.0,0.0,75,0.00,,,0.00,,2013-03-14 13:52:00,
2013-03-14 09:02:00,35.0,26.0,30.00,South,169,0.0,4.0,69,0.00,,,0.00,,2013-03-14 14:02:00,
2013-03-14 09:12:00,35.0,26.0,30.00,South,169,0.0,4.0,69,0.00,,,0.00,,2013-03-14 14:12:00,
2013-03-14 09:22:00,36.0,26.0,30.00,South,169,0.0,0.0,66,0.00,,,0.00,,2013-03-14 14:22:00,
2013-03-14 09:32:00,38.0,27.0,29.99,South,169,0.0,0.0,64,0.00,,,0.00,,2013-03-14 14:32:00,
2013-03-14 09:42:00,38.0,27.0,29.99,South,169,0.0,0.0,64,0.00,,,0.00,,2013-03-14 14:42:00,
2013-03-14 09:53:00,38.0,27.0,29.99,South,169,0.0,0.0,64,0.00,,,0.00,,2013-03-14 14:53:00,
2013-03-14 10:02:00,39.0,26.0,30.01,South,169,0.0,3.0,60,0.00,,,0.00,,2013-03-14 15:02:00,
2013-03-14 10:12:00,39.0,26.0,30.01,South,169,0.0,3.0,60,0.00,,,0.00,,2013-03-14 15:12:00,
2013-03-14 10:22:00,40.0,27.0,30.01,South,169,0.0,3.0,59,0.00,,,0.00,,2013-03-14 15:22:00,
2013-03-14 10:33:00,40.0,27.0,30.01,SW,217,0.0,4.0,60,0.00,,,0.00,,2013-03-14 15:33:00,
2013-03-14 10:43:00,40.0,27.0,30.01,SW,217,0.0,4.0,60,0.00,,,0.00,,2013-03-14 15:43:00,
2013-03-14 10:52:00,40.0,27.0,30.01,SW,217,0.0,0.0,60,0.00,,,0.00,,2013-03-14 15:52:00,
2013-03-14 11:03:00,41.0,28.0,30.01,SW,217,0.0,0.0,59,0.00,,,0.00,,2013-03-14 16:03:00,
2013-03-14 11:12:00,41.0,28.0,30.01,SW,217,0.0,0.0,59,0.00,,,0.00,,2013-03-14 16:12:00,
2013-03-14 11:22:00,42.0,29.0,30.01,WSW,242,0.0,8.0,59,0.00,,,0.00,,2013-03-14 16:22:00,
2013-03-14 11:32:00,44.0,30.0,30.00,WSW,243,0.0,1.0,57,0.00,,,0.00,,2013-03-14 16:32:00,
2013-03-14 11:42:00,44.0,30.0,30.00,WSW,243,0.0,1.0,57,0.00,,,0.00,,2013-03-14 16:42:00,
2013-03-14 11:52:00,45.0,30.0,30.00,WSW,245,0.0,5.0,56,0.00,,,0.00,,2013-03-14 16:52:00,
2013-03-14 12:12:00,46.0,30.0,30.00,WSW,256,0.0,4.0,54,0.00,,,0.00,,2013-03-14 17:12:00,
2013-03-14 12:23:00,48.0,32.0,30.00,WSW,256,0.0,1.0,53,0.00,,,0.00,,2013-03-14 17:23:00,
2013-03-14 12:32:00,50.0,32.0,30.00,NW,309,1.0,6.0,49,0.00,,,0.00,,2013-03-14 17:32:00,
2013-03-14 12:42:00,50.0,32.0,30.00,NW,309,1.0,6.0,49,0.00,,,0.00,,2013-03-14 17:42:00,
2013-03-14 12:52:00,51.0,33.0,30.00,NW,320,1.0,6.0,49,0.00,,,0.00,,2013-03-14 17:52:00,
2013-03-14 13:03:00,52.0,32.0,30.01,WNW,286,0.0,7.0,47,0.00,,,0.00,,2013-03-14 18:03:00,
2013-03-14 13:12:00,52.0,32.0,30.01,WNW,286,0.0,7.0,47,0.00,,,0.00,,2013-03-14 18:12:00,
2013-03-14 13:22:00,52.0,32.0,30.01,WNW,286,0.0,7.0,47,0.00,,,0.00,,2013-03-14 18:22:00,
2013-03-14 13:33:00,53.0,33.0,30.01,NNW,331,1.0,9.0,46,0.00,,,0.00,,2013-03-14 18:33:00,
2013-03-14 13:43:00,53.0,33.0,30.01,NNW,331,1.0,9.0,46,0.00,,,0.00,,2013-03-14 18:43:00,
2013-03-14 13:52:00,53.0,33.0,30.01,WNW,302,1.0,9.0,46,0.00,,,0.00,,2013-03-14 18:52:00,
2013-03-14 14:02:00,54.0,34.0,30.02,West,259,0.0,5.0,46,0.00,,,0.00,,2013-03-14 19:02:00,
2013-03-14 14:12:00,54.0,34.0,30.02,West,259,0.0,5.0,46,0.00,,,0.00,,2013-03-14 19:12:00,
2013-03-14 14:22:00,54.0,34.0,30.02,West,273,0.0,3.0,46,0.00,,,0.00,,2013-03-14 19:22:00,
2013-03-14 14:32:00,54.0,34.0,30.01,WSW,255,0.0,6.0,46,0.00,,,0.00,,2013-03-14 19:32:00,
2013-03-14 14:42:00,54.0,34.0,30.01,WSW,255,0.0,6.0,46,0.00,,,0.00,,2013-03-14 19:42:00,
2013-03-14 14:52:00,55.0,35.0,30.01,West,261,0.0,4.0,46,0.00,,,0.00,,2013-03-14 19:52:00,
2013-03-14 15:02:00,55.0,35.0,30.00,WNW,294,0.0,5.0,46,0.00,,,0.00,,2013-03-14 20:02:00,
2013-03-14 15:12:00,55.0,35.0,30.00,WNW,294,0.0,5.0,46,0.00,,,0.00,,2013-03-14 20:12:00,
2013-03-14 15:22:00,56.0,35.0,30.00,NW,313,0.0,4.0,45,0.00,,,0.00,,2013-03-14 20:22:00,
2013-03-14 15:32:00,57.0,36.0,29.99,NW,306,0.0,2.0,45,0.00,,,0.00,,2013-03-14 20:32:00,
2013-03-14 15:42:00,57.0,36.0,29.99,NW,306,0.0,2.0,45,0.00,,,0.00,,2013-03-14 20:42:00,
2013-03-14 15:52:00,57.0,35.0,29.99,NW,304,0.0,2.0,44,0.00,,,0.00,,2013-03-14 20:52:00,
2013-03-14 16:02:00,58.0,36.0,29.98,WNW,301,0.0,4.0,44,0.00,,,0.00,,2013-03-14 21:02:00,
2013-03-14 16:12:00,58.0,36.0,29.98,WNW,301,0.0,4.0,44,0.00,,,0.00,,2013-03-14 21:12:00,
2013-03-14 16:22:00,58.0,36.0,29.98,West,267,0.0,6.0,43,0.00,,,0.00,,2013-03-14 21:22:00,
2013-03-14 16:32:00,59.0,37.0,29.98,West,278,0.0,6.0,43,0.00,,,0.00,,2013-03-14 21:32:00,
2013-03-14 16:43:00,59.0,37.0,29.98,West,278,0.0,6.0,43,0.00,,,0.00,,2013-03-14 21:43:00,
2013-03-14 16:52:00,59.0,37.0,29.98,WNW,286,0.0,5.0,44,0.00,,,0.00,,2013-03-14 21:52:00,
2013-03-14 17:03:00,59.0,36.0,29.98,WNW,288,0.0,0.0,42,0.00,,,0.00,,2013-03-14 22:03:00,
2013-03-14 17:13:00,59.0,36.0,29.98,WNW,288,0.0,0.0,42,0.00,,,0.00,,2013-03-14 22:13:00,
2013-03-14 17:23:00,59.0,37.0,29.98,WNW,288,0.0,3.0,43,0.00,,,0.00,,2013-03-14 22:23:00,
2013-03-14 17:33:00,59.0,37.0,29.98,WNW,298,1.0,5.0,44,0.00,,,0.00,,2013-03-14 22:33:00,
2013-03-14 17:42:00,59.0,37.0,29.98,WNW,298,1.0,5.0,44,0.00,,,0.00,,2013-03-14 22:42:00,
2013-03-14 17:52:00,59.0,37.0,29.98,NW,311,1.0,6.0,44,0.00,,,0.00,,2013-03-14 22:52:00,
2013-03-14 18:02:00,57.0,36.0,30.00,NW,319,1.0,5.0,46,0.00,,,0.00,,2013-03-14 23:02:00,
2013-03-14 18:12:00,57.0,36.0,30.00,NW,319,1.0,5.0,46,0.00,,,0.00,,2013-03-14 23:12:00,
2013-03-14 18:22:00,57.0,36.0,30.00,NW,319,1.0,5.0,46,0.00,,,0.00,,2013-03-14 23:22:00,
2013-03-14 18:33:00,56.0,38.0,30.01,NW,320,1.0,4.0,50,0.00,,,0.00,,2013-03-14 23:33:00,
2013-03-14 18:42:00,56.0,38.0,30.01,NW,320,1.0,4.0,50,0.00,,,0.00,,2013-03-14 23:42:00,
2013-03-14 18:53:00,56.0,38.0,30.01,NW,320,1.0,4.0,50,0.00,,,0.00,,2013-03-14 23:53:00,
2013-03-14 19:02:00,53.0,37.0,30.01,NNW,327,0.0,3.0,54,0.00,,,0.00,,2013-03-15 00:02:00,
2013-03-14 19:12:00,53.0,37.0,30.01,NNW,327,0.0,0.0,55,0.00,,,0.00,,2013-03-15 00:12:00,
2013-03-14 19:22:00,53.0,37.0,30.01,NNW,327,0.0,0.0,55,0.00,,,0.00,,2013-03-15 00:22:00,
2013-03-14 19:32:00,51.0,37.0,30.01,NNW,327,0.0,0.0,58,0.00,,,0.00,,2013-03-15 00:32:00,
2013-03-14 19:42:00,51.0,37.0,30.01,NNW,327,0.0,0.0,58,0.00,,,0.00,,2013-03-15 00:42:00,
2013-03-14 19:52:00,51.0,37.0,30.01,NNW,327,0.0,0.0,58,0.00,,,0.00,,2013-03-15 00:52:00,
2013-03-14 20:02:00,50.0,37.0,30.01,NNW,327,0.0,0.0,61,0.00,,,0.00,,2013-03-15 01:02:00,
2013-03-14 20:12:00,50.0,37.0,30.01,NNW,327,0.0,0.0,61,0.00,,,0.00,,2013-03-15 01:12:00,
2013-03-14 20:22:00,48.0,37.0,30.01,NNW,327,0.0,0.0,65,0.00,,,0.00,,2013-03-15 01:22:00,
2013-03-14 20:32:00,48.0,37.0,30.01,NNW,327,0.0,0.0,65,0.00,,,0.00,,2013-03-15 01:32:00,
2013-03-14 20:43:00,48.0,37.0,30.01,NNW,327,0.0,0.0,65,0.00,,,0.00,,2013-03-15 01:43:00,
2013-03-14 20:52:00,46.0,36.0,30.01,NNW,327,0.0,0.0,69,0.00,,,0.00,,2013-03-15 01:52:00,
2013-03-14 21:02:00,45.0,36.0,30.01,NNW,327,0.0,0.0,71,0.00,,,0.00,,2013-03-15 02:02:00,
2013-03-14 21:12:00,45.0,36.0,30.01,NNW,327,0.0,0.0,71,0.00,,,0.00,,2013-03-15 02:12:00,
2013-03-14 21:22:00,44.0,36.0,30.00,NNW,327,0.0,0.0,73,0.00,,,0.00,,2013-03-15 02:22:00,
2013-03-14 21:32:00,44.0,37.0,30.00,NNW,327,0.0,0.0,77,0.00,,,0.00,,2013-03-15 02:32:00,
2013-03-14 21:42:00,44.0,37.0,30.00,NNW,327,0.0,0.0,77,0.00,,,0.00,,2013-03-15 02:42:00,
2013-03-14 21:52:00,44.0,37.0,29.99,NNW,327,0.0,0.0,77,0.00,,,0.00,,2013-03-15 02:52:00,
2013-03-14 22:02:00,43.0,36.0,29.99,NNW,327,0.0,0.0,75,0.00,,,0.00,,2013-03-15 03:02:00,
2013-03-14 22:12:00,43.0,36.0,29.99,NNW,327,0.0,0.0,75,0.00,,,0.00,,2013-03-15 03:12:00,
2013-03-14 22:22:00,43.0,36.0,30.00,NNW,327,0.0,0.0,76,0.00,,,0.00,,2013-03-15 03:22:00,
2013-03-14 22:33:00,41.0,35.0,29.99,NNW,327,0.0,0.0,79,0.00,,,0.00,,2013-03-15 03:33:00,
2013-03-14 22:43:00,41.0,35.0,29.99,NNW,327,0.0,0.0,79,0.00,,,0.00,,2013-03-15 03:43:00,
2013-03-14 22:52:00,40.0,35.0,29.99,NNW,327,0.0,0.0,82,0.00,,,0.00,,2013-03-15 03:52:00,
2013-03-14 23:03:00,40.0,35.0,29.99,NNW,327,0.0,0.0,82,0.00,,,0.00,,2013-03-15 04:03:00,
2013-03-14 23:12:00,40.0,35.0,29.99,NNW,327,0.0,0.0,82,0.00,,,0.00,,2013-03-15 04:12:00,
2013-03-14 23:23:00,40.0,36.0,29.98,NNW,327,0.0,0.0,84,0.00,,,0.00,,2013-03-15 04:23:00,
2013-03-14 23:32:00,40.0,36.0,29.98,NNW,327,0.0,0.0,84,0.00,,,0.00,,2013-03-15 04:32:00,
2013-03-14 23:43:00,40.0,36.0,29.98,NNW,327,0.0,0.0,84,0.00,,,0.00,,2013-03-15 04:43:00,
2013-03-14 23:53:00,39.0,35.0,29.96,NNW,327,0.0,0.0,84,0.00,,,0.00,,2013-03-15 04:53:00,